Location: Lane
(33.5226°N, 79.8788°W)
Time: 20:03:11
(UTC+00:00)

Explorer 11/Cluster Stage 4 - Pass Details

Date: 30 September 2022
Orbit: 466 x 1247 km, 28.8° (Epoch: 01 December)

Event Time Altitude Azimuth Distance (km) Brightness Sun altitude
Rises 17:54:43 0° 242° (WSW) 4,092 10.6 51.9°
Reaches altitude 10° 17:57:52 10° 237° (WSW) 3,057 10.2 51.7°
Maximum altitude 18:05:00 45° 167° (SSE) 1,380 9.3 51.2°
Drops below altitude 10° 18:10:58 10° 97° (E) 2,565 9.2 50.7°
Sets 18:13:24 0° 91° (E) 3,383 9.7 50.5°
